Stündliche Wetter Otradnyy

Heute, 10 April, Samstag

Zeit Temperatur Niederschläge Wind Luftdruck Luftfeuchtigkeit
00:00 +4°C° 0 mm 1 m/S 750 mmHg 99%
01:00 +4°C° 0 mm 1 m/S 750 mmHg 99%
02:00 +4°C° 0 mm 1 m/S 750 mmHg 99%
03:00 +3°C° 0 mm 1 m/S 750 mmHg 99%
04:00 +4°C° 0 mm 1 m/S 751 mmHg 99%
05:00 +4°C° 0 mm 1 m/S 751 mmHg 99%
06:00 +4°C° 0 mm 1 m/S 751 mmHg 99%
07:00 +5°C° 0 mm 1 m/S 751 mmHg 99%
08:00 +6°C° 0 mm 1 m/S 752 mmHg 99%
09:00 +6°C° 0 mm 1 m/S 752 mmHg 98%
10:00 +7°C° 0 mm 1 m/S 752 mmHg 97%
11:00 +7°C° 0 mm 1 m/S 752 mmHg 97%
12:00 +7°C° 0 mm 1 m/S 753 mmHg 97%
13:00 +8°C° 0 mm 1 m/S 753 mmHg 96%
14:00 +8°C° 0 mm 1 m/S 753 mmHg 96%
15:00 +8°C° 0 mm 1 m/S 753 mmHg 96%
16:00 +8°C° 0 mm 1 m/S 754 mmHg 97%
17:00 +7°C° 0 mm 1 m/S 754 mmHg 98%
18:00 +6°C° 0 mm 1 m/S 754 mmHg 98%
19:00 +4°C° 0 mm 0 m/S 753 mmHg 99%
20:00 +5°C° 0 mm 1 m/S 753 mmHg 99%
21:00 +5°C° 0 mm 1 m/S 753 mmHg 99%
22:00 +5°C° 0 mm 1 m/S 753 mmHg 99%
23:00 +5°C° 0 mm 1 m/S 753 mmHg 99%

Morgen, 11 April, Sonntag

Zeit Temperatur Niederschläge Wind Luftdruck Luftfeuchtigkeit
00:00 +5°C° 0 mm 1 m/S 752 mmHg 99%
01:00 +4°C° 0 mm 2 m/S 752 mmHg 98%
02:00 +4°C° 0 mm 2 m/S 752 mmHg 98%
03:00 +4°C° 0 mm 2 m/S 752 mmHg 97%
04:00 +4°C° 0 mm 2 m/S 752 mmHg 97%
05:00 +4°C° 0 mm 2 m/S 752 mmHg 94%
06:00 +5°C° 0 mm 2 m/S 752 mmHg 91%
07:00 +5°C° 0 mm 3 m/S 751 mmHg 88%
08:00 +8°C° 0 mm 3 m/S 751 mmHg 83%
09:00 +8°C° 0 mm 4 m/S 751 mmHg 78%
10:00 +11°C° 0 mm 4 m/S 751 mmHg 73%
11:00 +11°C° 0 mm 4 m/S 751 mmHg 71%
12:00 +12°C° 0 mm 5 m/S 751 mmHg 69%
13:00 +12°C° 0 mm 5 m/S 751 mmHg 67%
14:00 +12°C° 0 mm 5 m/S 751 mmHg 69%
15:00 +11°C° 0 mm 4 m/S 751 mmHg 71%
16:00 +11°C° 0 mm 4 m/S 751 mmHg 73%
17:00 +10°C° 0 mm 4 m/S 752 mmHg 77%
18:00 +8°C° 0 mm 4 m/S 752 mmHg 80%
19:00 +9°C° 0 mm 3 m/S 752 mmHg 83%
20:00 +8°C° 0 mm 3 m/S 752 mmHg 85%
21:00 +8°C° 0 mm 3 m/S 753 mmHg 87%
22:00 +7°C° 0 mm 3 m/S 753 mmHg 89%
23:00 +7°C° 0 mm 2 m/S 753 mmHg 91%

übermorgen, 12 April, Montag

Zeit Temperatur Niederschläge Wind Luftdruck Luftfeuchtigkeit
00:00 +7°C° 0 mm 2 m/S 753 mmHg 93%
01:00 +6°C° 0 mm 2 m/S 753 mmHg 95%
02:00 +6°C° 0 mm 2 m/S 754 mmHg 95%
03:00 +5°C° 0 mm 2 m/S 754 mmHg 96%
04:00 +6°C° 0 mm 1 m/S 754 mmHg 96%
05:00 +6°C° 0 mm 1 m/S 755 mmHg 91%
06:00 +6°C° 0 mm 1 m/S 755 mmHg 87%
07:00 +5°C° 0 mm 1 m/S 755 mmHg 83%
08:00 +7°C° 0 mm 1 m/S 756 mmHg 77%
09:00 +8°C° 0 mm 1 m/S 756 mmHg 72%
10:00 +8°C° 0 mm 2 m/S 756 mmHg 66%
11:00 +9°C° 0 mm 2 m/S 756 mmHg 64%
12:00 +9°C° 0 mm 2 m/S 756 mmHg 62%
13:00 +10°C° 0 mm 2 m/S 756 mmHg 60%
14:00 +10°C° 0 mm 2 m/S 756 mmHg 59%
15:00 +10°C° 0 mm 2 m/S 757 mmHg 59%
16:00 +9°C° 0 mm 2 m/S 757 mmHg 58%
17:00 +8°C° 0 mm 2 m/S 757 mmHg 65%
18:00 +8°C° 0 mm 1 m/S 757 mmHg 72%
19:00 +6°C° 0 mm 1 m/S 757 mmHg 79%
20:00 +6°C° 0 mm 1 m/S 757 mmHg 81%
21:00 +5°C° 0 mm 1 m/S 757 mmHg 83%
22:00 +3°C° 0 mm 0 m/S 757 mmHg 85%
23:00 +3°C° 0 mm 0 m/S 757 mmHg 85%

13 April, Dienstag

Zeit Temperatur Niederschläge Wind Luftdruck Luftfeuchtigkeit
00:00 +3°C° 0 mm 1 m/S 757 mmHg 85%
01:00 +3°C° 0 mm 1 m/S 757 mmHg 86%
02:00 +3°C° 0 mm 1 m/S 757 mmHg 86%
03:00 +3°C° 0 mm 1 m/S 757 mmHg 86%
04:00 +2°C° 0 mm 1 m/S 757 mmHg 87%
05:00 +3°C° 0 mm 1 m/S 757 mmHg 84%
06:00 +4°C° 0 mm 1 m/S 757 mmHg 81%
07:00 +4°C° 0 mm 0 m/S 757 mmHg 78%
08:00 +7°C° 0 mm 1 m/S 757 mmHg 73%
09:00 +9°C° 0 mm 1 m/S 757 mmHg 68%
10:00 +11°C° 0 mm 1 m/S 756 mmHg 63%
11:00 +12°C° 0 mm 1 m/S 756 mmHg 59%
12:00 +13°C° 0 mm 2 m/S 755 mmHg 55%
13:00 +14°C° 0 mm 2 m/S 755 mmHg 51%
14:00 +15°C° 0 mm 2 m/S 755 mmHg 50%
15:00 +15°C° 0 mm 2 m/S 754 mmHg 50%
16:00 +15°C° 0 mm 2 m/S 754 mmHg 50%
17:00 +14°C° 0 mm 2 m/S 753 mmHg 58%
18:00 +12°C° 0 mm 1 m/S 753 mmHg 66%
19:00 +11°C° 0 mm 1 m/S 753 mmHg 75%
20:00 +10°C° 0 mm 1 m/S 753 mmHg 78%
21:00 +10°C° 0 mm 1 m/S 753 mmHg 82%
22:00 +9°C° 0 mm 1 m/S 752 mmHg 85%
23:00 +9°C° 0 mm 1 m/S 752 mmHg 88%

14 April, Mittwoch

Zeit Temperatur Niederschläge Wind Luftdruck Luftfeuchtigkeit
00:00 +8°C° 0 mm 1 m/S 752 mmHg 90%
01:00 +8°C° 0 mm 1 m/S 751 mmHg 93%
02:00 +7°C° 0 mm 2 m/S 751 mmHg 93%
03:00 +7°C° 0 mm 2 m/S 751 mmHg 93%
04:00 +6°C° 0 mm 2 m/S 751 mmHg 93%
05:00 +7°C° 0 mm 2 m/S 751 mmHg 91%
06:00 +8°C° 0 mm 2 m/S 751 mmHg 88%
07:00 +9°C° 0 mm 2 m/S 750 mmHg 85%
08:00 +11°C° 0 mm 3 m/S 750 mmHg 77%
09:00 +12°C° 0 mm 3 m/S 750 mmHg 70%
10:00 +14°C° 0 mm 4 m/S 750 mmHg 62%
11:00 +15°C° 0 mm 4 m/S 749 mmHg 54%
12:00 +17°C° 0 mm 4 m/S 749 mmHg 46%
13:00 +18°C° 0 mm 4 m/S 749 mmHg 38%
14:00 +17°C° 0 mm 4 m/S 748 mmHg 38%
15:00 +17°C° 0 mm 4 m/S 748 mmHg 37%
16:00 +17°C° 0 mm 4 m/S 748 mmHg 37%
17:00 +14°C° 0 mm 3 m/S 748 mmHg 45%
18:00 +14°C° 0 mm 2 m/S 748 mmHg 52%
19:00 +12°C° 0 mm 2 m/S 748 mmHg 60%
20:00 +11°C° 0 mm 1 m/S 748 mmHg 64%
21:00 +10°C° 0 mm 1 m/S 748 mmHg 68%
22:00 +9°C° 0 mm 1 m/S 748 mmHg 72%
23:00 +9°C° 0 mm 1 m/S 748 mmHg 74%

15 April, Donnerstag

Zeit Temperatur Niederschläge Wind Luftdruck Luftfeuchtigkeit
00:00 +8°C° 0 mm 1 m/S 748 mmHg 76%
01:00 +8°C° 0 mm 1 m/S 747 mmHg 79%
02:00 +7°C° 0 mm 1 m/S 747 mmHg 80%
03:00 +7°C° 0 mm 1 m/S 747 mmHg 82%
04:00 +7°C° 0 mm 1 m/S 747 mmHg 83%
05:00 +8°C° 0 mm 1 m/S 747 mmHg 79%
06:00 +9°C° 0 mm 1 m/S 747 mmHg 76%
07:00 +10°C° 0 mm 1 m/S 747 mmHg 72%
08:00 +11°C° 0 mm 1 m/S 747 mmHg 65%
09:00 +13°C° 0 mm 2 m/S 746 mmHg 58%
10:00 +15°C° 0 mm 2 m/S 746 mmHg 51%
11:00 +16°C° 0 mm 2 m/S 746 mmHg 47%
12:00 +17°C° 0 mm 2 m/S 745 mmHg 42%
13:00 +18°C° 0 mm 2 m/S 745 mmHg 38%
14:00 +18°C° 0 mm 3 m/S 744 mmHg 38%
15:00 +18°C° 0 mm 3 m/S 744 mmHg 38%
16:00 +18°C° 0 mm 3 m/S 743 mmHg 37%
17:00 +17°C° 0 mm 3 m/S 743 mmHg 45%
18:00 +15°C° 0 mm 2 m/S 742 mmHg 52%
19:00 +13°C° 0 mm 2 m/S 742 mmHg 59%
20:00 +12°C° 0 mm 2 m/S 741 mmHg 63%
21:00 +10°C° 0 mm 2 m/S 741 mmHg 67%
22:00 +9°C° 0 mm 2 m/S 741 mmHg 70%
23:00 +9°C° 0 mm 2 m/S 740 mmHg 72%
Mehr zeigen

Wir brauchen deine Erlaubnis

Meteoprog und unser Service Anbieter werden persönliche Daten aufbewahren, so wie Cookies, Geräte Bezeichnung oder ähnliche Technologien von deinem Gerät und Prozess, so wie Persönliche Daten Inhalte und Werbungen, genauso wie social Media und den Verkehr zu analysieren.

  • Aufbewahrung und/oder Zugang zu deiner Geräte Informationen.

    Cookies, Geräte Bezeichnung oder andere Informationen, können aufbewahrt oder Zugang zu deinem Gerät erhalten, für den Grund, der oben angegeben wird.

  • Personalisierte Werbung und Inhalte, Messungen, Einblick in das Publikum und Produkt Entwicklung.

    Werbungen und Inhalte können personalisiert werden, basierend auf ein Profil. Mehr Daten können besser personalisierte Werbungen und Inhalte hinzufügen. Werbung und Inhalte können gezeigt und gemessen werden. Einblicke über das Publikum, welche die Werbung gesehen haben und den Inhalt, können abgeleitet werden. So wie Daten können genutzt werden, um es zu verbessern oder die Benutzer Erfahrung zu verbessern das System und die Software.

Wenn du “Ich stimme zu” klickst, erlaubst du uns, die Cookies zu benutzen die Geräte Bezeichnung, den Web oder ähnliche Technologien zu benutzen. Deine Settings, können in deinem Gerät bei deinem Browser geändert werden.

Für den bestimmten Zweck, berechtigten Interessen beruhen darauf, mehr als auf den Inhalt. Du kannst mehr darüber in unseren Privaten und Cookie Politik lesen.